| time (UTC) | temp C | wind direction | speed KPH | gust KPH | rain 1hr cm | rain 24hr cm | rain mn cm | humidity % | barometer mb |
| 20260506121530 | 18 | 262 | 0.0 | 4.8 | 0.00 | 0.00 | 0.00 | 89 | 1011.7 |
| 20260506120030 | 18 | 241 | 0.0 | 1.6 | 0.00 | 0.00 | 0.00 | 89 | 1011.5 |
| 20260506114533 | 18 | 240 | 0.0 | 4.8 | 0.00 | 0.00 | 0.00 | 89 | 1011.4 |
| 20260506113031 | 18 | 243 | 0.0 | 3.2 | 0.00 | 0.00 | 0.00 | 89 | 1011.3 |
| 20260506111523 | 18 | 233 | 0.0 | 4.8 | 0.00 | 0.00 | 0.00 | 88 | 1011.1 |
| 20260506110023 | 18 | 245 | 0.0 | 4.8 | 0.00 | 0.00 | 0.00 | 88 | 1011.0 |
| 20260506104520 | 18 | 245 | 1.6 | 4.8 | 0.00 | 0.00 | 0.00 | 88 | 1010.9 |
| 20260506103025 | 18 | 260 | 1.6 | 6.4 | 0.00 | 0.00 | 0.00 | 87 | 1010.6 |
| 20260506101518 | 18 | 236 | 0.0 | 4.8 | 0.00 | 0.00 | 0.00 | 87 | 1010.4 |
| 20260506100029 | 18 | 241 | 0.0 | 4.8 | 0.00 | 0.00 | 0.00 | 86 | 1010.2 |
| 20260506094516 | 18 | 246 | 1.6 | 6.4 | 0.00 | 0.00 | 0.00 | 85 | 1010.0 |
| 20260506093013 | 18 | 245 | 0.0 | 3.2 | 0.00 | 0.00 | 0.00 | 84 | 1010.1 |
| 20260506091512 | 18 | 245 | 0.0 | 1.6 | 0.00 | 0.00 | 0.00 | 83 | 1010.0 |
| 20260506090011 | 18 | 243 | 0.0 | 3.2 | 0.00 | 0.00 | 0.00 | 83 | 1010.0 |
| 20260506084507 | 18 | 249 | 0.0 | 3.2 | 0.00 | 0.00 | 0.00 | 81 | 1010.2 |
| 20260506083006 | 18 | 247 | 0.0 | 1.6 | 0.00 | 0.00 | 0.00 | 79 | 1010.0 |
| 20260506081503 | 18 | 249 | 0.0 | 0.0 | 0.00 | 0.00 | 0.00 | 78 | 1010.1 |
| 20260506073056 | 19 | 246 | 0.0 | 1.6 | 0.00 | 0.00 | 0.00 | 74 | 1010.2 |
| 20260506071556 | 19 | 193 | 0.0 | 3.2 | 0.00 | 0.00 | 0.00 | 73 | 1010.2 |
| 20260506070112 | 19 | 248 | 0.0 | 1.6 | 0.00 | 0.00 | 0.00 | 72 | 1010.7 |
| 20260506061546 | 20 | 240 | 0.0 | 0.0 | 0.00 | 0.00 | 0.00 | 67 | 1011.1 |
| 20260506044537 | 20 | 251 | 0.0 | 0.0 | 0.00 | 0.00 | 0.00 | 61 | 1010.6 |
| 20260506043031 | 20 | 251 | 0.0 | 0.0 | 0.00 | 0.00 | 0.00 | 61 | 1011.2 |
| 20260506041534 | 20 | 240 | 0.0 | 0.0 | 0.00 | 0.00 | 0.00 | 61 | 1011.1 |
| 20260506040029 | 20 | 250 | 0.0 | 1.6 | 0.00 | 0.00 | 0.00 | 60 | 1010.8 |
| 20260506034526 | 20 | 235 | 0.0 | 0.0 | 0.00 | 0.00 | 0.00 | 59 | 1010.6 |
| 20260506033025 | 20 | 196 | 0.0 | 0.0 | 0.00 | 0.00 | 0.00 | 57 | 1011.1 |
| 20260506031531 | 20 | 195 | 0.0 | 1.6 | 0.00 | 0.00 | 0.00 | 57 | 1010.9 |
| 20260506030025 | 20 | 173 | 0.0 | 1.6 | 0.00 | 0.00 | 0.00 | 56 | 1011.2 |
| 20260506024535 | 20 | 264 | 0.0 | 1.6 | 0.00 | 0.00 | 0.00 | 55 | 1011.3 |
| 20260506023021 | 20 | 279 | 0.0 | 1.6 | 0.00 | 0.00 | 0.00 | 56 | 1011.0 |
| 20260506021521 | 20 | 279 | 0.0 | 1.6 | 0.00 | 0.00 | 0.00 | 54 | 1010.9 |
| 20260506020022 | 21 | 279 | 0.0 | 1.6 | 0.00 | 0.00 | 0.00 | 52 | 1010.8 |
| 20260506014519 | 21 | 279 | 0.0 | 0.0 | 0.00 | 0.00 | 0.00 | 53 | 1010.8 |
| 20260506013022 | 21 | 279 | 0.0 | 1.6 | 0.00 | 0.00 | 0.00 | 52 | 1011.0 |
| 20260506011546 | 21 | 253 | 0.0 | 0.0 | 0.00 | 0.00 | 0.00 | 51 | 1010.6 |
| 20260506010019 | 22 | 254 | 0.0 | 0.0 | 0.00 | 0.00 | 0.00 | 49 | 1010.8 |
| 20260506004518 | 22 | 254 | 0.0 | 0.0 | 0.00 | 0.00 | 0.00 | 46 | 1010.7 |
| 20260506003018 | 22 | 254 | 0.0 | 0.0 | 0.00 | 0.00 | 0.00 | 45 | 1011.0 |
| 20260506001516 | 23 | 254 | 0.0 | 1.6 | 0.00 | 0.00 | 0.00 | 43 | 1011.0 |
| 20260506000026 | 23 | 248 | 0.0 | 3.2 | 0.00 | 0.00 | 0.00 | 42 | 1010.8 |
| 20260505234533 | 23 | 240 | 0.0 | 4.8 | 0.00 | 0.00 | 0.00 | 41 | 1010.7 |
| 20260505233014 | 23 | 247 | 0.0 | 1.6 | 0.00 | 0.00 | 0.00 | 43 | 1010.9 |
| 20260505231514 | 23 | 252 | 0.0 | 3.2 | 0.00 | 0.00 | 0.00 | 43 | 1010.8 |
| 20260505230023 | 24 | 193 | 0.0 | 3.2 | 0.00 | 0.00 | 0.00 | 43 | 1010.6 |
| 20260505224515 | 24 | 217 | 0.0 | 1.6 | 0.00 | 0.00 | 0.00 | 47 | 1010.4 |
| 20260505223015 | 25 | 248 | 0.0 | 3.2 | 0.00 | 0.00 | 0.00 | 43 | 1010.5 |
| 20260505221511 | 25 | 274 | 1.6 | 4.8 | 0.00 | 0.00 | 0.00 | 41 | 1010.5 |
| 20260505220009 | 25 | 170 | 0.0 | 1.6 | 0.00 | 0.00 | 0.00 | 42 | 1010.3 |
| 20260505214511 | 25 | 108 | 0.0 | 3.2 | 0.00 | 0.00 | 0.00 | 41 | 1010.3 |
| 20260505213006 | 25 | 120 | 0.0 | 9.7 | 0.00 | 0.00 | 0.00 | 41 | 1010.6 |
| 20260505211504 | 25 | 101 | 0.0 | 8.0 | 0.00 | 0.00 | 0.00 | 41 | 1010.6 |
| 20260505210006 | 25 | 210 | 3.2 | 6.4 | 0.00 | 0.00 | 0.00 | 41 | 1010.7 |
| 20260505204500 | 25 | 265 | 3.2 | 6.4 | 0.00 | 0.00 | 0.00 | 40 | 1011.0 |
| 20260505203110 | 25 | 254 | 0.0 | 4.8 | 0.00 | 0.00 | 0.00 | 44 | 1011.1 |
| 20260505201557 | 25 | 294 | 1.6 | 6.4 | 0.00 | 0.00 | 0.00 | 41 | 1011.3 |
| 20260505200056 | 25 | 151 | 0.0 | 8.0 | 0.00 | 0.00 | 0.00 | 42 | 1011.5 |
| 20260505194609 | 26 | 267 | 0.0 | 6.4 | 0.00 | 0.00 | 0.00 | 41 | 1011.8 |
| 20260505193052 | 26 | 251 | 1.6 | 8.0 | 0.00 | 0.00 | 0.00 | 40 | 1012.0 |
| 20260505191604 | 26 | 155 | 0.0 | 4.8 | 0.00 | 0.00 | 0.00 | 41 | 1012.0 |
| 20260505190049 | 26 | 200 | 1.6 | 9.7 | 0.00 | 0.00 | 0.00 | 41 | 1012.1 |
| 20260505184546 | 26 | 214 | 0.0 | 4.8 | 0.00 | 0.00 | 0.00 | 41 | 1012.3 |
| 20260505183046 | 26 | 127 | 1.6 | 8.0 | 0.00 | 0.00 | 0.00 | 40 | 1012.4 |
| 20260505181545 | 26 | 244 | 3.2 | 6.4 | 0.00 | 0.00 | 0.00 | 39 | 1012.7 |
| 20260505180049 | 27 | 162 | 0.0 | 4.8 | 0.00 | 0.00 | 0.00 | 41 | 1013.0 |
| 20260505174543 | 26 | 152 | 0.0 | 8.0 | 0.00 | 0.00 | 0.00 | 41 | 1013.3 |
| 20260505173044 | 27 | 122 | 0.0 | 8.0 | 0.00 | 0.00 | 0.00 | 41 | 1013.6 |
| 20260505171542 | 27 | 193 | 0.0 | 3.2 | 0.00 | 0.00 | 0.00 | 41 | 1013.5 |
| 20260505170037 | 25 | 258 | 0.0 | 8.0 | 0.00 | 0.00 | 0.00 | 44 | 1013.7 |
| 20260505164533 | 24 | 239 | 0.0 | 8.0 | 0.00 | 0.00 | 0.00 | 47 | 1013.5 |
| 20260505163029 | 23 | 213 | 1.6 | 6.4 | 0.00 | 0.00 | 0.00 | 48 | 1013.5 |
| 20260505161528 | 22 | 236 | 4.8 | 12.9 | 0.00 | 0.00 | 0.00 | 49 | 1013.6 |
| 20260505153020 | 21 | 256 | 1.6 | 9.7 | 0.00 | 0.00 | 0.00 | 54 | 1014.1 |
| 20260505151515 | 21 | 245 | 0.0 | 4.8 | 0.00 | 0.00 | 0.00 | 57 | 1013.8 |
| 20260505124550 | 12 | 202 | 0.0 | 0.0 | 0.00 | 0.00 | 0.00 | 89 | 1013.5 |
| 20260505123049 | 11 | 202 | 0.0 | 0.0 | 0.00 | 0.00 | 0.00 | 89 | 1013.2 |